Weather Service Report


373 
ASUS46 KPQR 300310
RWROR 

OREGON REGIONAL WEATHER ROUNDUP
NATIONAL WEATHER SERVICE PORTLAND OR
800 PM PDT SAT APR 29 2017

NOTE: "FAIR" INDICATES FEW OR NO CLOUDS BELOW 12,000 FEET WITH
NO SIGNIFICANT WEATHER AND/OR OBSTRUCTIONS TO VISIBILITY.

ORZ001>013-300400-
NORTHWEST OREGON

  
CITY           SKY/WX    TMP DP  RH WIND       PRES   REMARKS
ASTORIA        LGT RAIN  49  45  86 S13G21    30.15S                  
NEWPORT        RAIN      46  45  93 S7        30.27F                  
PORTLAND       LGT RAIN  57  49  74 SE5       30.18S                  
VANCOUVER WA   LGT RAIN  59  48  67 S5        30.17S                  
SCAPPOOSE      LGT RAIN  54  47  77 NW3       30.17S                  
HILLSBORO      LGT RAIN  54  51  90 NW5       30.17S                  
AURORA         LGT RAIN  58  40  51 SW7       30.19S                  
MCMINNVILLE    LGT RAIN  55  38  52 SW10      30.20R                  
SALEM          LGT RAIN  59  29  31 W9        30.19R                  
CORVALLIS      CLOUDY    57  36  44 NW5       30.21S                  
EUGENE         CLOUDY    61  27  27 W10       30.22S                  
$$

ORZ021-028-300400-
SOUTHWEST OREGON

  
CITY           SKY/WX    TMP DP  RH WIND       PRES   REMARKS
NORTH BEND     PTCLDY    54  45  71 W3        30.29S                  
BROOKINGS      CLEAR     55  45  68 CALM      30.24R                  
ROSEBURG       MOCLDY    65  26  23 N8        30.22R                  
SEXTON SUMMIT  MOCLDY    48  36  63 VRB7      30.23R                  
MEDFORD        PTCLDY    66  39  37 N10       30.16R                  
$$

ORZ014>016-041-300400-
COLUMBIA GORGE

  
CITY           SKY/WX    TMP DP  RH WIND       PRES   REMARKS
TROUTDALE      LGT RAIN  55  50  83 NE5       30.18F                  
HOOD RIVER     CLOUDY    55  36  47 W7        30.16S                  
THE DALLES     CLOUDY    61  33  35 NW15      30.12S                  
$$

ORZ029>031-041-044-049-050-061>064-502-503-505>511-300400-
EASTERN OREGON

  
CITY           SKY/WX    TMP DP  RH WIND       PRES   REMARKS
REDMOND        CLOUDY    57  20  23 NW12      30.16R                  
BEND           CLOUDY    55  27  33 NW8G15    30.16S                  
PRINEVILLE     MOCLDY    55  28  35 W8        30.17R                  
KLAMATH FALLS  MOCLDY    56  27  32 W14       30.18R                  
LAKEVIEW       PTCLDY    52  34  50 S6        30.18S                  
HERMISTON      CLOUDY    58  37  45 SW9       30.10S                  
PENDLETON      CLOUDY    56  40  55 SE3       30.11S                  
JOHN DAY       PTCLDY    56  26  31 CALM      30.14S                  
MEACHAM        PTCLDY    47  35  63 CALM      30.14S                  
LA GRANDE      MOCLDY    54  34  47 S6        30.11S                  
BAKER CITY     MOCLDY    49  32  52 NE6       30.13F                  
BURNS          CLEAR     49  34  56 E8        30.13S                  
ROME             N/A     55  28  35 SE7       30.13F                  
ONTARIO        MOCLDY    59  33  37 E5        30.15S                  
$$
  

Return to Home page


Western Regional Climate Center, wrcc@dri.edu